Weather History for NW Arkansas Airport, AR

Change the Weather History Date:

Sunday, November 11, 2012

  Actual Average Record
Temperature  
Mean Temperature 49 °F -  
Max Temperature 66 °F - - ()
Min Temperature 32 °F - - ()
Degree Days  
Heating Degree Days 16    
Moisture  
Dew Point 46 °F    
Average Humidity 88    
Maximum Humidity 100    
Minimum Humidity 73    
Precipitation  
Precipitation 0.76 in - - ()
Sea Level Pressure  
Sea Level Pressure 29.94 in    
Wind  
Wind Speed 14 mph (NW)    
Max Wind Speed 29 mph    
Max Gust Speed 41 mph    
Visibility 7 miles    
Events Rain    
T = Trace of Precipitation, MM = Missing Value Source: NWS Daily Summary

Daily Weather History Graph

Daily Weather History Graph

Search for Another Location

Airport:

Trip Planner

Search our weather history database for the weather conditions in past years. The results will help you decide how hot, cold, wet, or windy it might be!

Date:

Astronomy

Nov. 11, 2012 Rise Set
Actual Time 6:50 AM CST 5:11 PM CST
Civil Twilight 6:23 AM CST 5:38 PM CST
Nautical Twilight 5:52 AM CST 6:09 PM CST
Astronomical Twilight 5:22 AM CST 6:39 PM CST
Moon 4:09 AM CST (11/11) 3:32 PM CST (11/11)
Length of Visible Light 11h 15m
Length of Day
10h 20m
Waning Crescent, 7% of the Moon is Illuminated
Nov 11
Waning Crescent
Nov 13
New
Nov 20
First Quarter
Nov 28
Full
Dec 6
Last Quarter

Hourly Weather History & Observations

Time (CST) Temp. Windchill Dew Point Humidity Pressure Visibility Wind Dir Wind Speed Gust Speed Precip Events Conditions
12:53 AM 64.9 °F - 55.9 °F 73% 29.82 in 10.0 mi South 17.3 mph 23.0 mph N/A   Scattered Clouds
1:53 AM 64.9 °F - 55.9 °F 73% 29.80 in 10.0 mi South 20.7 mph - N/A   Overcast
2:53 AM 64.9 °F - 57.0 °F 75% 29.79 in 10.0 mi South 17.3 mph 24.2 mph N/A   Mostly Cloudy
3:53 AM 66.0 °F - 57.0 °F 73% 29.82 in 10.0 mi SSW 15.0 mph 21.9 mph N/A   Overcast
4:53 AM 66.0 °F - 57.0 °F 73% 29.80 in 10.0 mi South 16.1 mph 28.8 mph N/A   Overcast
5:53 AM 64.9 °F - 57.9 °F 78% 29.79 in 10.0 mi South 23.0 mph 31.1 mph N/A   Overcast
6:53 AM 64.9 °F - 59.0 °F 81% 29.79 in 10.0 mi South 20.7 mph 34.5 mph N/A   Overcast
7:53 AM 66.0 °F - 57.9 °F 75% 29.79 in 10.0 mi South 28.8 mph 34.5 mph N/A   Overcast
8:53 AM 66.0 °F - 59.0 °F 78% 29.77 in 10.0 mi South 23.0 mph 34.5 mph N/A   Overcast
9:53 AM 64.9 °F - 60.1 °F 84% 29.78 in 10.0 mi SW 18.4 mph 40.3 mph 0.00 in Rain Light Rain
9:59 AM 53.6 °F - 53.6 °F 100% 29.87 in 2.5 mi NW 16.1 mph 41.4 mph 0.08 in Rain Light Rain
10:07 AM 51.8 °F - 51.8 °F 100% 29.86 in 1.2 mi NW 10.4 mph 23.0 mph 0.12 in Rain Rain
10:20 AM 51.8 °F - - N/A% 29.88 in 2.5 mi NW 10.4 mph 19.6 mph 0.17 in Rain Rain
10:26 AM 51.8 °F - - N/A% 29.88 in 2.0 mi NW 9.2 mph - 0.23 in Rain Heavy Rain
10:33 AM 51.8 °F - - N/A% 29.89 in 1.8 mi NNW 8.1 mph - 0.24 in Rain Rain
10:36 AM 51.8 °F - - N/A% 29.88 in 3.0 mi Variable 6.9 mph - 0.25 in Rain Light Rain
10:53 AM 51.1 °F - - N/A% 29.87 in 4.0 mi NNW 13.8 mph - 0.27 in Rain Rain
11:19 AM 50.0 °F - - N/A% 29.88 in 2.5 mi North 9.2 mph - 0.06 in Rain Rain
11:24 AM 50.0 °F - - N/A% 29.89 in 5.0 mi NNW 9.2 mph - 0.06 in Rain Light Rain
11:43 AM 50.0 °F - - N/A% 29.92 in 2.5 mi NW 6.9 mph - 0.10 in Rain Rain
11:53 AM 50.0 °F - - N/A% 29.90 in 1.8 mi NW 3.5 mph - 0.14 in Rain Rain
12:04 PM 50.0 °F - - N/A% 29.90 in 2.0 mi North 8.1 mph - 0.05 in Rain Rain
12:21 PM 50.0 °F - - N/A% 29.94 in 2.5 mi NW 5.8 mph - 0.11 in Rain Rain
12:31 PM 50.0 °F - - N/A% 29.91 in 3.0 mi North 6.9 mph - 0.12 in Rain Light Rain
12:53 PM 50.0 °F - 48.9 °F 96% 29.90 in 4.0 mi NNW 3.5 mph - 0.13 in Rain Light Rain
1:53 PM 50.0 °F - 48.0 °F 93% 29.90 in 6.0 mi Calm Calm - 0.04 in Rain Light Rain
2:02 PM 48.2 °F - 46.4 °F 93% 29.92 in 3.0 mi Calm Calm - 0.03 in Rain Rain
2:29 PM 48.2 °F - 46.4 °F 93% 29.92 in 2.5 mi North 3.5 mph - 0.09 in Rain Heavy Rain
2:42 PM 48.2 °F - 46.4 °F 93% 29.91 in 10.0 mi Calm Calm - 0.10 in Rain Light Rain
2:53 PM 48.9 °F - 46.0 °F 90% 29.90 in 3.0 mi ESE 3.5 mph - 0.13 in Rain Heavy Rain
3:46 PM 48.2 °F - 46.4 °F 93% 29.95 in 5.0 mi Calm Calm - 0.03 in Rain Light Rain
3:53 PM 45.0 °F 38.5 °F 44.1 °F 97% 29.94 in 7.0 mi NW 13.8 mph 21.9 mph 0.04 in Rain Light Rain
4:53 PM 39.9 °F 32.5 °F 39.0 °F 97% 30.01 in 10.0 mi NW 12.7 mph - 0.01 in   Overcast
5:20 PM 39.2 °F 31.6 °F 39.2 °F 100% 30.02 in 10.0 mi NW 12.7 mph - N/A   Overcast
5:53 PM 39.0 °F 30.6 °F 37.9 °F 96% 30.04 in 8.0 mi WNW 15.0 mph 19.6 mph N/A   Overcast
7:53 PM 36.0 °F 27.5 °F 35.1 °F 97% 30.12 in 10.0 mi WNW 12.7 mph - N/A   Overcast
8:13 PM 35.6 °F 28.0 °F 33.8 °F 93% 30.14 in 10.0 mi NW 10.4 mph - N/A   Overcast
8:53 PM 36.0 °F 28.5 °F 34.0 °F 93% 30.17 in 10.0 mi NW 10.4 mph - N/A   Overcast
9:08 PM 35.6 °F 26.2 °F 33.8 °F 93% 30.17 in 10.0 mi NNW 15.0 mph - N/A   Overcast
9:53 PM 34.0 °F 24.2 °F 32.0 °F 92% 30.18 in 10.0 mi NNW 15.0 mph 26.5 mph N/A   Overcast
10:45 PM 33.8 °F 23.9 °F 30.2 °F 87% 30.20 in 10.0 mi NNW 15.0 mph - N/A   Overcast
10:53 PM 34.0 °F 24.6 °F 30.0 °F 85% 30.20 in 10.0 mi NNW 13.8 mph 23.0 mph N/A   Overcast
11:24 PM 32.0 °F 24.2 °F 28.4 °F 87% 30.22 in 10.0 mi NNW 9.2 mph - N/A   Scattered Clouds
11:53 PM 32.0 °F 24.8 °F 28.0 °F 85% 30.25 in 10.0 mi NNW 8.1 mph - N/A   Clear